[Date Prev][Date Next][Thread Prev][Thread Next] - [Date Index][Thread Index][Author Index]

2 Line ISS Keps 1-8



ISS
1 25544U 98067A   03007.76875000  .00029175  00000-0  37738-3 0  5556
2 25544  51.6343 106.0568 0005126   8.1237 248.3331 15.58661101236015


----
Via the sarex mailing list at AMSAT.ORG courtesy of AMSAT-NA.
To unsubscribe, send "unsubscribe sarex" to Majordomo@amsat.org



AMSAT Top AMSAT Home